Flag for U.S.A. Weather past 2 weeks in Toccoa, Georgia, U.S.A.

Now
70 °F

Mostly cloudy.


Feels Like: 77 °F
Forecast: 57 / 74 °F
Wind: 14 mph from East

Location: Clemson-Oconee County Airport

Current Time: Sep 23, 2014 at 3:24:28 PM

Latest Report: Sep 23, 2014 at 2:54 PM


Visibility: 10 mi

Pressure: 30.26 "Hg

Humidity: 55%

Dew point: 53 °F

Location of ToccoaLocation

Historic Weather in Toccoa — Graph

°F

Toccoa temperature yesterday

Maximum temperature yesterday: 80 °F (at 2:54 PM)
Minimum temperature yesterday: 67 °F (at 7:54 AM)
Average temperature yesterday: 73 °F

Past Weeks' High & Low Weather Summary

 TemperatureHumidityPressure
High97 °F (Sep 17, 12:54 PM)91% (Sep 15, 4:54 AM)30.28 "Hg (Sep 15, 4:54 AM)
Low59 °F (Sep 23, 6:54 AM)35% (Sep 17, 1:54 PM)29.87 "Hg (Sep 21, 4:54 PM)
Average74 °F71%30.07 "Hg
* Reported Sep 8 2:01 PM — Sep 23 1:54 PM, Toccoa, Weather by CustomWeather, © 2014

Note: Actual official high and low records may vary slightly from our data, if they occured in-between our weather recording intervals... More about our weather records

Advertising

Toccoa weather history for previous 24 hours

 ConditionsComfort  
Time TempWeatherWind HumidityBarometerVisibility
1:54 PM
Sep 23
71 °FPassing clouds.10 mph53%30.26 "Hg10 mi
12:54 PM70 °FSunny.10 mph53%30.27 "Hg10 mi
11:54 AM69 °FSunny.14 mph51%30.27 "Hg10 mi
10:54 AM66 °FSunny.13 mph56%30.26 "Hg10 mi
9:54 AM67 °FSunny.17 mph53%30.24 "Hg10 mi
8:54 AM63 °FSunny.6 mph65%30.22 "Hg10 mi
7:54 AM61 °FClear.6 mph70%30.20 "Hg10 mi
6:54 AM59 °FClear.5 mph75%30.18 "Hg10 mi
5:54 AM61 °FClear.6 mph70%30.16 "Hg10 mi
4:54 AM61 °FPassing clouds.3 mph72%30.15 "Hg10 mi
3:54 AM62 °FClear.5 mph67%30.14 "Hg10 mi
2:54 AM61 °FClear.5 mph70%30.14 "Hg10 mi
1:54 AM62 °FClear.5 mph67%30.14 "Hg10 mi
12:54 AM65 °FPassing clouds.3 mph63%30.14 "Hg10 mi
11:54 PM
Sep 22
69 °FPassing clouds.6 mph55%30.14 "Hg10 mi
10:54 PM69 °FPassing clouds.3 mph68%30.14 "Hg10 mi
9:54 PM68 °FClear.3 mph70%30.12 "Hg10 mi
8:54 PM69 °FClear.6 mph70%30.10 "Hg10 mi
7:54 PM71 °FSunny.3 mph66%30.06 "Hg10 mi
6:54 PM76 °FPassing clouds.3 mph48%30.03 "Hg10 mi
5:54 PM80 °FSunny.3 mph39%30.02 "Hg10 mi
4:54 PM80 °FSunny.3 mph36%30.01 "Hg10 mi
3:54 PM80 °FSunny.3 mph39%30.01 "Hg10 mi
Weather by CustomWeather, © 2014

See weather overviewHow to use our weather pages